Location: Bonac
(42.8765°N, 0.9753°E)
Time: 14:44:46
(UTC+00:00)

BREEZE-M DEB (TANK) - Visible Passes

Search period start: 11 April 2026 00:00
Search period end: 21 April 2026 00:00
Orbit: 345 x 14320 km, 49.5° (Epoch: 10 April)

Date Brightness Start Highest point End Pass type
(mag) Time Alt. Az. Time Alt. Az. Time Alt. Az.
11 Apr 7.0 03:51:32 17° WSW 04:49:00 79° NNW 05:00:15 10° ENE visible
11 Apr 9.0 21:36:48 16° ESE 21:54:29 18° ESE 22:18:56 10° ENE visible
12 Apr 7.7 02:03:05 34° SSW 02:50:13 78° SE 03:07:36 10° ENE visible
13 Apr 8.4 00:14:27 39° SSE 00:48:46 54° SE 01:13:57 10° ENE visible
13 Apr 6.6 04:47:59 10° WSW 05:42:22 69° NNW 05:51:12 10° ENE visible
13 Apr 8.8 22:25:37 27° SE 22:47:31 31° ESE 23:17:19 10° ENE visible
14 Apr 7.3 02:51:49 26° SW 03:44:42 88° NNW 03:58:40 10° ENE visible
15 Apr 8.0 01:02:43 40° SSW 01:44:24 69° SE 02:05:37 10° ENE visible
15 Apr 8.7 22:05:50 10° S 23:42:10 45° ESE 00:11:02 10° ENE visible
16 Apr 7.0 03:39:28 16° WSW 04:38:29 76° NNW 04:49:31 10° ENE visible
16 Apr 8.9 21:23:45 21° ESE 21:42:26 23° ESE 22:11:21 10° ENE visible
17 Apr 7.7 01:49:48 34° SW 02:39:27 83° SE 02:56:44 10° ENE visible
17 Apr 8.4 22:50:53 10° S 00:37:38 60° SE 01:03:06 10° ENE visible
18 Apr 6.6 04:39:29 10° W 05:31:40 68° N 05:40:15 10° ENE visible
18 Apr 8.7 21:08:20 10° SSE 22:35:37 36° ESE 23:07:09 10° ENE visible
19 Apr 7.3 02:35:20 24° WSW 03:33:45 83° NNW 03:47:33 10° ENE visible
19 Apr 9.1 20:18:37 13° ESE 20:38:18 15° E 21:00:26 10° ENE visible
19 Apr 8.0 23:43:01 10° SSW 01:33:07 74° SE 01:54:23 10° ENE visible
